星链-4144 (STARLINK-4144 )

导读

STARLINK-4144是美国(US)SpaceX星链(Starlink)项目中的一颗卫星,于2022年7月24日发射升空,属于星链互联网卫星星座组网卫星,主要为全球提供低延迟、高速率的宽带互联网服务,运行在近地轨道,是Starlink大规模卫星互联网组网建设中的组成单元。

基本信息
目录编号:
53257
目录名称:
STARLINK-4144
国际标识:
2022-086R
轨道中心:
EARTH
卫星名称:
星链-4144
卫星全名:
星链-4144 (STARLINK-4144 )
卫星状态:
在轨 (已飞行1424 天)
发射日期:
2022-07-24 UTC
国别 :
美国 (US)
星等 :
--
轨道信息
数据来源 国际轨道数据 AOE轨道数据
星历时间 2026-06-17T10:33:24+0800
9小时前
查看轨道信息
2026-06-16T00:00:00+0800
1天前
查看轨道信息
半长轴 6917.885km 6917.912km
偏心率 0.0001294 0.0001134
轨道倾角 53.160° 53.160°
近地点辐角 87.868° 93.004°
升交点赤经 107.728° 114.203°
平近点角 272.246° 1.743°
近地点 538.852km 538.99km
远地点 540.644km 540.56km
周期 95.438分钟 95.438分钟
每日圈数 15.088387 15.088297
详细信息
固有亮度:
5
最大亮度:
2.5
卫星平台:
Starlink v1.5
覆盖范围:
全球
运营商:
太空探索技术公司
运营商所在国:
美国
制造商(研发单位):
太空探索技术公司
制造商所在国:
美国
使用方式:
暂无
卫星简介
星链(Starlink)计划是由太空探索技术公司(SpaceX)提出的一个巨型低轨卫星互联网星座项目,计划在2019年至2024年间在太空搭建由约1.2万颗卫星组成的“星链”网络,其中1584颗将部署在地球上空550千米处的近地轨道,并从2020年开始工作。该卫星仍在工作。
2D轨道图
3D轨道图
轨道高度分析图
轨道倾角分析图
轨道综合分析图
查看轨道综合分析图